Location: General Nathan Twining Observatory
(34.5931°N, 106.8201°W)
Time: 03:19:49
(UTC-06:00)

HJ-1C - Pass Details

Date: 20 September 2017
Orbit: 444 x 456 km, 97.3° (Epoch: 23 October)

Event Time Altitude Azimuth Distance (km) Brightness Sun altitude
Exits shadow 20:15:28 - 165° (SSE) 1,651 6.0 -15.0°
Reaches altitude 10° 20:15:41 10° 165° (SSE) 1,557 5.9 -15.0°
Maximum altitude 20:19:01 80° 78° (ENE) 455 3.2 -15.7°
Drops below altitude 10° 20:22:23 10° 351° (N) 1,570 6.4 -16.3°
Sets 20:24:25 0° 350° (N) 2,445 7.4 -16.8°
